Location: ???????
(55.4362°N, 38.1183°E)
Time: 22:16:43
(UTC+00:00)

N. Korean satellite - Pass Details

Date: 03 October 2021
Orbit: 450 x 495 km, 97.3° (Epoch: 21 October)

Event Time Altitude Azimuth Distance (km) Brightness Sun altitude
Rises 02:51:01 0° 15° (NNE) 2,550 10.5 -6.9°
Reaches altitude 10° 02:53:05 10° 18° (NNE) 1,673 9.6 -6.6°
Maximum altitude 02:56:41 70° 103° (ESE) 524 7.0 -6.1°
Drops below altitude 10° 03:00:18 10° 187° (S) 1,681 9.2 -5.6°
Sets 03:02:22 0° 190° (S) 2,563 10.1 -5.3°
